User: anonymous   Login
Location: Tyler Bend Campground
(35.9875°N, 92.7606°W)
Time: 18:00:18
(UTC-06:00)
Language:

CZ-2C R/B - Orbit

View from above orbital plane
View from above orbital plane
View from above satellite
View from above satellite

Ground track
Ground track

The orbit data is extracted from the following two-line orbital elements,

1 36089U 09061B   15063.79305966  .00000436  00000-0  12018-3 0  9990
2 36089 098.0807 091.2514 0083706 097.7030 317.5488 14.49374691280680
Epoch (UTC): 04 March 2015 19:02:00
Eccentricity: 0.0083706
inclination: 98.0807°
perigee height: 668 km
apogee height: 787 km
right ascension of ascending node: 91.2514°
argument of perigee: 97.7030°
revolutions per day: 14.49374691
mean anomaly at epoch: 317.5488°
orbit number at epoch: 28068

The dashed part of the orbit path shows where the satellite is in the earth's shadow,  

DLR